Location: Gannavaram
(16.7485°N, 80.7189°E)
Time: 13:32:37
(UTC+00:00)

Daily predictions for brighter satellites

Satellite Brightness Start Highest point End
(mag) Time Altitude Azimuth Time Altitude Azimuth Time Altitude Azimuth
Okean O Rocket 3.3 13:16:17 10° SSW 13:20:24 38° W 13:24:32 10° NNW
GEOS 3 Rocket 4.5 13:16:57 10° ESE 13:21:45 35° ENE 13:26:34 10° N
Okean-O 3.5 13:18:56 10° SE 13:22:51 31° ENE 13:26:45 10° NNE
IRIDIUM 106 4.3 13:18:45 10° S 13:23:58 82° E 13:29:10 10° N
Cosmos 2292 Rocket 2.5 13:21:00 10° N 13:24:06 73° E 13:27:01 10° S
CZ-4 R/B 1.6 13:20:19 10° SSE 13:24:22 52° ENE 13:28:22 10° N
Centaur AC-64 4.4 13:13:17 10° WNW 13:30:25 50° SW 13:34:11 10° SE
Delta 2 Rocket 4.3 13:28:36 10° SSW 13:33:36 40° SE 13:38:06 10° ENE
Cosmos 2221 3.2 13:31:16 10° SSE 13:35:03 32° E 13:38:52 10° NNE
H-2A R/B 2.2 13:36:24 10° S 13:41:18 71° WSW 13:46:11 10° NNW
SJ-11-01 4.3 13:37:16 10° SSE 13:42:00 89° ENE 13:46:43 10° NNW
USA 267 3.9 13:38:28 12° ESE 13:44:08 41° NE 13:50:10 10° NNW
ERS-2 2.0 13:41:11 10° NNE 13:44:46 63° E 13:48:20 10° S
MOS 1-B Rocket 4.4 13:43:47 10° NNE 13:50:02 42° E 13:55:34 10° S
Ariane H10+ 3.3 13:36:07 10° WSW 13:50:32 34° SSW 13:53:31 16° SE
Cosmos 1763 Rocket 3.5 13:46:06 10° N 13:51:08 59° ENE 13:56:05 11° SSE
YAOGAN 1 2.8 13:49:33 10° S 13:53:51 71° WSW 13:58:08 10° NNW
GPS 2-04 Rocket1 3.4 13:50:46 10° WSW 13:54:50 58° NNW 13:58:51 10° NE
Cosmos 1766 Rocket 3.7 13:53:15 10° N 13:57:35 54° E 14:01:29 13° SSE
ARGOS 3.2 13:52:22 10° S 13:57:44 81° WSW 14:03:05 10° NNW
Meteor 2-15 Rocket 4.4 13:52:13 10° S 13:58:08 58° E 14:04:03 10° NNE
Cosmos 841 Rocket 4.5 13:54:04 10° NNE 13:58:21 26° ENE 14:00:06 22° ESE
USA 186 3.6 13:59:56 14° NE 13:59:56 14° NE 14:00:44 10° NE
Geosat 3.9 13:55:59 10° SSE 14:00:58 85° ENE 14:05:59 10° NNW
Cosmos 1437 Rocket 4.1 14:02:31 20° ENE 14:02:31 20° ENE 14:04:42 10° NE
Cosmos 468 Rocket 4.0 14:00:04 10° NNW 14:05:16 90° WSW 14:10:19 11° SSE
OBJECT-B 2.9 14:10:03 15° NE 14:10:03 15° NE 14:11:01 10° NNE
Meteor 2-16 Rocket 4.5 14:06:44 10° N 14:12:51 83° W 14:18:58 10° S
Cosmos 2266 Rocket 4.3 14:10:54 10° NNW 14:16:57 65° W 14:22:55 10° S
SL-08 RB Rocket 4.2 14:14:27 10° S 14:18:58 59° WSW 14:23:29 10° NNW
Ariane Rocket 4.3 14:21:43 22° ENE 14:21:43 22° ENE 14:25:05 10° NNE
Cosmos 1844 Rocket 2.9 14:18:05 10° SSW 14:23:37 72° WNW 14:29:10 10° NNE
SL-16 R/B 4.1 14:19:19 10° NW 14:24:03 28° WSW 14:28:46 10° SSW
CSL-04 Debris 4.4 14:19:16 10° S 14:24:38 72° WSW 14:30:03 10° NNW
SJ-6B 3.7 14:26:05 33° NE 14:26:05 33° NE 14:28:51 10° N
OAO 3 Rocket 4.4 14:22:50 10° SSW 14:25:17 24° S 14:25:17 24° S
GPS 2-18 Rocket1 2.9 14:24:05 10° W 14:27:45 74° NNW 14:28:07 66° NE
USA 229 DEB 4.0 14:21:16 10° NNW 14:28:53 66° ENE 14:32:36 33° SE
USA 229 4.0 14:21:22 10° NNW 14:28:58 65° ENE 14:32:39 34° SE
Lacrosse 5 rocket 1.4 14:26:17 10° NNW 14:30:43 76° ENE 14:31:28 60° ESE
NOSS 3-3 (A) 3.6 14:25:48 10° S 14:31:03 55° ESE 14:36:35 10° NE
NOSS 3-3 (C) 3.6 14:25:53 10° S 14:31:10 54° ESE 14:36:42 10° NE
Cosmos 1570 Rocket 4.4 14:27:06 10° N 14:32:00 41° ENE 14:32:09 41° E
Cosmos 1943 3.2 14:29:31 10° N 14:35:04 58° ENE 14:36:11 49° ESE
Helios 1A Rocket 3.3 14:37:39 38° SSW 14:38:59 59° WSW 14:43:03 10° NNW
Milstar 3 4.4 14:19:04 10° WSW 14:39:37 80° NNW 14:48:51 13° ENE
CSL-04 Rocket 4.3 14:37:13 15° S 14:41:26 50° WSW 14:46:33 10° NNW
Cosmos 1408 Rocket 3.5 14:37:26 10° N 14:41:52 85° W 14:42:25 68° S
Cosmos 1606 3.2 14:41:25 44° SW 14:42:14 55° W 14:45:55 10° N
Delta 202 3.4 14:37:10 10° WSW 14:42:31 76° SSE 14:43:19 63° ESE
Cosmos 1844 4.3 14:37:25 10° SSW 14:43:05 59° WNW 14:48:43 10° N
ASC 2 Rocket 3.6 14:39:14 10° WNW 14:45:24 59° NNE 14:46:09 52° NE
Cosmos 1814 Rocket 4.0 14:40:22 10° N 14:45:12 57° ENE 14:45:12 57° ENE
Cosmos 921 Rocket 3.2 14:41:46 10° N 14:45:12 57° NNE 14:45:12 57° NNE
GPS 2-17 Rocket1 3.0 14:41:38 10° W 14:46:29 85° NNW 14:46:41 81° NE
BREEZE M DEB (TANK) 3.7 14:41:06 10° NW 14:47:42 33° WSW 14:48:27 30° SW
NOSS 3-1 (A) 4.2 14:39:15 10° NNW 14:47:49 83° ENE 14:51:49 39° SSE
S3M 3.9 14:46:25 41° SSE 14:48:46 71° E 14:55:07 10° N
Cosmos 540 Rocket 3.9 14:49:19 10° NNW 14:54:16 55° WSW 14:55:36 42° SSW
BREEZE-M (TANK) 4.1 14:53:47 10° NNW 14:59:19 31° NNE 14:59:19 31° NNE
Mugunghwa Rocket 4.1 14:59:27 10° WSW 15:05:51 71° NNW 15:07:36 51° NE
USA 267 4.3 15:25:50 32° SW 15:26:57 34° SW 15:32:46 10° WNW
Resurs 01 Rocket 4.2 15:37:02 15° N 15:37:02 15° N 15:37:47 10° N
CZ-3C R/B 3.4 15:38:27 10° WNW 16:12:02 - ESE 15:40:11 36° WNW
Centaur D-1AR AC-39 4.3 20:47:29 25° ENE 20:47:29 25° ENE 20:51:34 10° ENE
ARIANE 5 R/B 4.0 21:40:44 10° N 21:43:17 30° N 21:43:17 30° N
Cosmos 2285 Rocket 4.3 21:49:43 56° NNW 21:49:43 56° NNW 21:54:53 10° N
CZ-3B R/B 4.1 21:52:10 16° NNE 21:52:10 16° NNE 21:53:58 10° NE
Cosmos 1980 Rocket 3.0 21:58:59 41° NNW 21:58:59 41° NNW 22:02:59 10° N
Cosmos 614 Rocket 4.3 21:52:25 10° N 21:57:10 63° NE 21:57:10 63° NE
ALOS 4.2 21:55:07 10° NE 21:58:58 26° E 22:01:02 19° SE
Lacrosse 4 Rocket 4.0 22:02:07 13° NNW 22:02:07 13° NNW 22:02:49 10° NNW
Cosmos 2233 Rocket 3.9 21:53:24 10° N 21:59:35 85° E 22:00:31 66° SSE
ADEOS Rocket 3.6 22:05:51 50° WNW 22:05:51 50° WNW 22:12:02 10° NNW
Cosmos 2278 4.3 22:09:30 43° NW 22:09:30 43° NW 22:14:01 10° N
CENTAUR R/B 3.9 22:08:15 17° SSE 22:11:01 26° ESE 22:15:41 10° NE
BREEZE-M DEB (TANK) 4.5 22:14:14 12° NNW 22:17:32 61° ENE 22:31:08 10° SE
Cosmos 407 Rocket 4.3 22:13:59 10° N 22:19:09 50° ENE 22:24:18 10° SSE
Cosmos 2227 Rocket 2.2 22:14:28 10° NNW 22:20:07 82° ENE 22:25:45 10° SSE
PSLV R/B 4.1 22:16:32 10° NNE 22:20:37 53° E 22:21:41 41° SSE
CZ-2C R/B 2.4 22:17:03 10° N 22:22:12 74° WNW 22:22:53 64° SW
Cosmos 1452 Rocket 3.4 22:22:04 52° S 22:23:23 85° ESE 22:28:39 10° NNE
Cosmos 2297 Rocket 2.1 22:18:10 10° NNW 22:23:45 65° WSW 22:25:55 37° S
USA 234 3.3 22:18:50 10° NNE 22:25:15 63° NW 22:27:20 43° WSW
SL-16 R/B 2.7 22:22:14 26° S 22:25:17 58° ESE 22:30:50 10° NNE
Cosmos 220 Rocket 4.2 22:25:53 59° NW 22:25:53 59° NW 22:29:51 10° N
Intelsat 5-3 Rocket 3.0 22:27:27 45° WSW 22:29:32 86° NNW 22:33:17 10° ENE
Cosmos 1346 Rocket 2.9 22:31:30 48° SSE 22:32:25 68° E 22:36:18 10° NNE
GOES 2 Rocket 2.7 22:32:24 70° WNW 22:32:52 85° SSW 22:37:03 10° ESE
Meteor 1-24 Rocket 4.4 22:33:40 35° WNW 22:33:40 35° WNW 22:38:32 10° NNW
Atlas Centaur 2 2.3 22:33:29 40° SW 22:36:06 82° SSE 22:41:46 10° ENE
NOSS 3-2 (C) 3.9 22:39:02 15° S 22:43:06 47° ESE 22:48:23 10° NE
Cosmos 1606 Rocket 3.9 22:44:34 10° N 22:48:56 66° E 22:53:20 10° SSE
FENGYUN 3A 3.6 22:44:04 10° N 22:49:23 66° WNW 22:53:01 21° SSW
Cosmos 292 Rocket 4.3 22:48:40 36° WSW 22:49:35 40° WNW 22:54:07 10° N
Cosmos 1110 Rocket 4.2 22:45:56 12° S 22:50:41 68° ESE 22:55:51 10° NNE
Cosmos 1726 Rocket 4.4 22:46:51 10° N 22:51:06 50° E 22:55:23 10° SSE
Milstar 3 3.4 22:50:00 24° W 22:54:10 49° SSW 23:04:16 10° SE
Tsikada Rocket 4.2 22:47:49 10° S 22:54:12 78° E 23:00:36 10° N
Cosmos 2322 Rocket 2.1 22:51:49 15° SSW 22:56:30 89° E 23:02:11 10° NNE
SL-08 R/B 4.1 22:57:07 29° WSW 22:57:36 30° W 23:01:44 10° NW
ATLAS 2A CENTAUR R/B 3.0 22:56:15 21° WNW 22:58:53 49° N 23:11:49 10° ENE
Cosmos 2219 3.9 22:54:20 10° NW 22:59:20 32° WSW 23:04:21 10° SSW
Cosmos 1891 Rocket 4.3 22:53:30 10° N 22:59:31 76° W 23:05:31 10° S
Cosmos 1703 3.5 22:56:18 10° S 23:00:10 70° E 23:04:01 10° N
CCE 1 Rocket 3.3 22:58:55 31° SW 23:00:40 76° SSE 23:04:35 10° ENE
COSMOS 2455 3.6 22:57:04 10° NW 23:02:05 29° WSW 23:07:08 10° SSW
Cosmos 405 2.9 22:58:44 10° NNW 23:02:11 61° W 23:05:36 10° S
GPS 2-15 Rocket1 3.3 22:59:40 24° W 23:02:19 66° N 23:06:57 10° ENE
USA 32 4.2 22:57:58 10° N 23:03:13 76° E 23:08:28 10° S
SEDSat Delta rocket 3.1 23:00:51 27° WSW 23:03:30 85° NNW 23:07:54 10° ENE
Palapa B4 Rocket 4.0 23:01:22 22° SW 23:05:18 51° SSE 23:09:43 10° E
OAO 3 Rocket 4.4 23:03:50 10° NW 23:08:29 43° NNE 23:13:11 10° E
NOSS 3-2 (A) 3.6 23:06:29 22° WSW 23:09:28 41° WNW 23:14:44 10° N
Cosmos 1626 Rocket 3.8 23:07:43 10° S 23:12:01 69° E 23:16:20 10° N
Timation 1 Rocket 4.5 23:06:23 10° NNW 23:12:08 51° WSW 23:17:53 10° S
Cosmos 2237 4.3 23:07:24 10° SSW 23:13:07 85° ESE 23:18:50 10° NNE
Cosmos 2228 3.4 23:10:33 10° NNW 23:14:33 40° W 23:18:35 10° SSW
USA 238 DEB 3.8 23:13:59 14° SW 23:19:29 54° WNW 23:25:54 10° NNE
USA 238 3.7 23:14:02 13° SW 23:19:36 55° WNW 23:26:01 10° NNE
Cosmos 1484 Rocket 3.5 23:16:34 10° NNW 23:20:05 33° WNW 23:23:02 13° SW
Meteor 1-31 Rocket 3.0 23:16:27 10° NNE 23:20:21 72° E 23:24:16 10° S
ARIANE 5 R/B 4.3 23:21:37 10° S 23:22:16 10° SSE 23:23:03 10° SSE
Cosmos 2360 Rocket 2.3 23:17:24 10° SSW 23:23:04 83° ESE 23:28:44 10° NNE
Cosmos 2263 Rocket 3.8 23:19:58 10° N 23:25:15 40° ENE 23:30:32 10° SE
Cosmos 2219 Rocket 4.4 23:22:27 10° SSE 23:26:58 25° ESE 23:31:32 10° NE
ADEOS 3.6 23:21:56 10° NNE 23:27:09 88° ESE 23:32:22 10° SSW
Cosmos 1140 Rocket 4.3 23:24:00 10° NW 23:28:28 29° W 23:32:57 10° SSW
CZ-4B R/B 4.0 23:24:23 10° N 23:28:49 82° W 23:33:07 10° SSW
H-2A R/B 4.0 23:25:23 10° NNE 23:28:57 42° E 23:32:32 10° S
Cosmos 1464 Rocket 4.3 23:24:33 10° NNW 23:30:20 43° W 23:36:10 10° SSW
Cosmos 389 Rocket 3.0 23:27:59 10° N 23:31:25 61° E 23:34:48 10° SSE
GPS 2-14 Rocket1 2.8 23:31:56 11° W 23:35:49 79° NNW 23:39:57 10° ENE
ALOS 3.8 23:33:04 10° NNW 23:36:05 17° WNW 23:39:07 10° WSW
Cosmos 2034 Rocket 4.1 23:30:43 10° NNW 23:36:55 59° W 23:43:02 10° S
SWIFT 2.9 23:33:56 10° WSW 23:37:58 49° SSE 23:42:06 10° E
ASTEX 1 3.4 23:34:32 10° S 23:39:27 75° W 23:44:24 10° N
Cosmos 1455 2.4 23:37:34 10° NNW 23:41:16 49° W 23:44:59 10° SSW
CZ-4B R/B 3.5 23:42:25 10° NNE 23:46:04 56° E 23:49:52 10° S
Cosmos 1634 Rocket 4.4 23:45:55 10° N 23:52:05 73° E 23:58:18 10° S
